Location: Fontevrault
(47.1823°N, 0.0493°E)
Time: 14:34:22
(UTC+00:00)

N. Korean satellite - Visible Passes

Search period start: 29 September 2022 00:00
Search period end: 09 October 2022 00:00
Orbit: 427 x 468 km, 97.3° (Epoch: 28 September)

Date Brightness Start Highest point End Pass type
(mag) Time Alt. Az. Time Alt. Az. Time Alt. Az.
29 Sep 9.5 04:31:15 10° NE 04:33:35 18° E 04:35:54 10° SE visible
01 Oct 8.4 04:51:55 10° NNE 04:54:54 32° E 04:57:52 10° SSE visible
02 Oct 9.8 04:17:29 10° ENE 04:18:52 12° E 04:20:14 10° ESE visible
03 Oct 6.9 05:12:47 10° NNE 05:16:01 62° E 05:19:15 10° S visible
04 Oct 9.2 04:37:27 10° NE 04:40:02 21° E 04:42:35 10° SSE visible
06 Oct 8.0 04:57:53 10° NNE 05:00:59 38° E 05:04:03 10° SSE visible
07 Oct 9.7 04:22:57 10° ENE 04:24:48 14° E 04:26:38 10° SE visible
08 Oct 6.6 05:18:26 10° NNE 05:21:44 75° ESE 05:25:00 10° S visible
